Location: ?????
(30.2541°N, 31.0910°E)
Time: 11:41:57
(UTC+00:00)

Cosmos 1140 Rocket - Visible Passes

Search period start: 28 March 2023 00:00
Search period end: 07 April 2023 00:00
Orbit: 744 x 766 km, 74.1° (Epoch: 27 March)

Date Brightness Start Highest point End Pass type
(mag) Time Alt. Az. Time Alt. Az. Time Alt. Az.
28 Mar 7.1 17:11:31 10° W 17:11:49 10° W 17:12:08 10° W visible
02 Apr 6.2 03:11:32 10° SSE 03:15:30 23° E 03:19:30 10° NE visible
03 Apr 6.8 02:33:44 10° ESE 02:34:48 11° E 02:35:53 10° E visible
05 Apr 5.4 02:49:36 10° SSE 02:54:04 31° E 02:58:34 10° NE visible
06 Apr 6.3 02:10:29 10° SE 02:13:19 15° E 02:16:10 10° ENE visible
